Location: Masseube
(43.4298°N, 0.5781°E)
Time: 16:39:19
(UTC+00:00)

Cosmos 2278 - Pass Details

Date: 08 August 2025
Orbit: 838 x 851 km, 71.1° (Epoch: 08 December)

Event Time Altitude Azimuth Distance (km) Brightness Sun altitude
Exits shadow 20:41:11 - 182° (S) 2,850 6.1 -14.8°
Reaches altitude 10° 20:42:18 10° 180° (S) 2,444 5.7 -15.0°
Maximum altitude 20:47:38 47° 108° (ESE) 1,104 3.9 -15.7°
Drops below altitude 10° 20:53:00 10° 36° (NE) 2,465 6.2 -16.5°
Sets 20:55:32 0° 30° (NNE) 3,405 7.0 -16.8°
